Tracking 30746 objects as of 20-Jun-2025
HD Live streaming from Space Station
objects crossing your sky now

FENGYUN 1C DEB

Track FENGYUN 1C DEB now!
10-day predictions


NORAD ID: 32243
Int'l Code: 1999-025CWR
Perigee: 693.7 km
Apogee: 1,087.4 km
Inclination: 98.3 °
Period: 102.6 minutes
Semi major axis: 7261 km
RCS: 0.0053 m2 (small)
Launch date: May 10, 1999
Source: People's Republic of China (PRC)
Launch site: Taiyaun Space Center, China (TSC)

Note: This is SATELLITE DEBRIS
Your satellite tracking list
Your tracking list is empty




NASA's NSSDC Master Catalog

Two Line Element Set (TLE):
1 32243U 99025CWR 25170.38473357  .00002519  00000-0  11918-2 0  9993
2 32243  98.2808 210.4958 0271102 264.5565  92.4626 14.03007137911147
Source of the keplerian elements: AFSPC